Date String (YYYY-MM-DD hh:mm:ss) UTC,Instrument flags,Ambient pressure (hPa),Sample flow (lpm),Bypass flow (lpm),Sample temperature (°C),Ambient temperature (°C),ASC tube jacket temperature (°C),LED temperature (°C),Box temperature (°C),Sample RH (%),Span deviation,Mass concentration (μg/m³),Mass concentration (μg/m³),Mass concentration (μg/m³)
DateTimeUTC,F1_M11,P_M11,Q1_M11,Q2_M11,T1_M11,T2_M11,T3_M11,T4_M11,T5_M11,U1_M11,ZSPAN_M11,X0_M11,X2_M11,X1_M11
2021-09-27 05:00:00,,0826.2,5.00,0.00,29.4,27.9,00.0,38.6,31.2,10.7,0002.8,0015.24,0006.22,0005.28
2021-09-27 05:01:00,,0826.4,5.01,0.00,29.5,28.1,00.0,38.6,31.2,10.7,0002.6,0015.36,0006.23,0005.28
2021-09-27 05:02:00,,0826.3,5.00,0.00,29.5,28.2,00.0,38.6,31.2,10.7,0002.6,0015.08,0006.19,0005.27
2021-09-27 05:03:00,,0826.3,5.00,0.00,29.5,28.3,00.0,38.6,31.3,10.9,0002.7,0014.88,0006.15,0005.27
2021-09-27 05:04:00,,0826.3,5.01,0.00,29.6,28.4,00.0,38.6,31.3,10.9,0002.7,0014.57,0006.15,0005.27
2021-09-27 05:05:00,,0826.3,5.00,0.00,29.6,28.5,00.0,38.6,31.4,10.8,0002.6,0014.38,0006.12,0005.27
2021-09-27 05:06:00,,0826.3,5.00,0.00,29.6,28.6,00.0,38.6,31.4,10.8,0002.5,0014.31,0006.09,0005.27
2021-09-27 05:07:00,,0826.4,5.01,0.00,29.7,28.6,00.0,38.6,31.4,10.6,0002.4,0014.14,0006.08,0005.27
2021-09-27 05:08:00,,0826.4,4.99,0.00,29.7,28.7,00.0,38.7,31.5,10.6,0002.2,0012.38,0006.05,0005.28
2021-09-27 05:09:00,,0826.4,5.00,0.00,29.7,28.7,00.0,38.7,31.5,10.7,0001.9,0011.79,0006.05,0005.28
2021-09-27 05:10:00,,0826.4,5.00,0.00,29.7,28.8,00.0,38.7,31.5,10.7,0001.5,0010.83,0006.06,0005.29
2021-09-27 05:11:00,,0826.4,4.99,0.00,29.8,28.9,00.0,38.7,31.6,10.6,0001.4,0010.30,0006.07,0005.28
2021-09-27 05:12:00,,0826.4,5.00,0.00,29.8,28.9,00.0,38.7,31.6,10.7,0001.7,0010.51,0006.09,0005.30
2021-09-27 05:13:00,,0826.4,5.01,0.00,29.8,28.8,00.0,38.8,31.6,10.7,0002.0,0010.96,0006.19,0005.32
2021-09-27 05:14:00,,0826.4,5.01,0.00,29.8,27.1,00.0,38.7,31.2,10.5,0001.9,0011.47,0006.26,0005.32
2021-09-27 05:15:00,,0826.4,5.00,0.00,29.6,26.2,00.0,38.7,30.9,10.7,0001.8,0011.59,0006.24,0005.30
2021-09-27 05:16:00,,0826.4,4.99,0.00,29.5,26.4,00.0,38.7,30.9,10.7,0002.2,0011.72,0006.24,0005.30
2021-09-27 05:17:00,,0826.4,5.00,0.00,29.5,26.8,00.0,38.7,31.0,10.7,0002.1,0012.04,0006.27,0005.30
2021-09-27 05:18:00,,0826.4,5.00,0.00,29.4,27.2,00.0,38.6,31.0,10.7,0002.2,0012.66,0006.24,0005.29
2021-09-27 05:19:00,,0826.3,4.99,0.00,29.4,27.5,00.0,38.6,31.1,10.7,0002.6,0013.40,0006.24,0005.28
2021-09-27 05:20:00,,0826.3,5.01,0.00,29.5,27.7,00.0,38.6,31.1,10.8,0002.5,0013.54,0006.27,0005.28
2021-09-27 05:21:00,,0826.4,4.99,0.00,29.5,27.9,00.0,38.6,31.2,10.7,0002.5,0013.54,0006.26,0005.29
2021-09-27 05:22:00,,0826.4,5.00,0.00,29.5,28.1,00.0,38.6,31.2,10.9,0002.9,0013.42,0006.25,0005.30
2021-09-27 05:23:00,,0826.4,5.00,0.00,29.5,28.2,00.0,38.6,31.3,10.9,0002.8,0012.92,0006.22,0005.29
2021-09-27 05:24:00,,0826.4,4.99,0.00,29.6,28.3,00.0,38.6,31.3,10.9,0002.5,0012.57,0006.15,0005.27
2021-09-27 05:25:00,,0826.4,5.01,0.00,29.6,28.4,00.0,38.6,31.3,10.9,0002.3,0012.52,0006.10,0005.26
2021-09-27 05:26:00,,0826.4,4.99,0.00,29.6,28.5,00.0,38.6,31.4,10.9,0002.6,0012.66,0006.12,0005.26
2021-09-27 05:27:00,,0826.4,4.99,0.00,29.7,28.6,00.0,38.7,31.4,10.8,0002.4,0012.44,0006.13,0005.27
2021-09-27 05:28:00,,0826.4,5.02,0.00,29.7,28.7,00.0,38.7,31.5,10.7,0002.5,0012.53,0006.09,0005.25
2021-09-27 05:29:00,,0826.4,5.00,0.00,29.7,28.7,00.0,38.7,31.5,10.7,0002.7,0012.25,0006.18,0005.25
2021-09-27 05:30:00,,0826.4,5.00,0.00,29.7,28.7,00.0,38.7,31.5,10.6,0002.7,0011.99,0006.20,0005.26
2021-09-27 05:31:00,,0826.4,5.01,0.00,29.8,28.8,00.0,38.7,31.6,10.6,0002.8,0012.07,0006.20,0005.24
2021-09-27 05:32:00,,0826.4,4.99,0.00,29.8,28.8,00.0,38.7,31.6,10.6,0002.9,0012.16,0006.24,0005.24
2021-09-27 05:33:00,,0826.4,5.01,0.00,29.8,28.9,00.0,38.8,31.6,10.6,0003.0,0012.59,0006.23,0005.23
2021-09-27 05:34:00,,0826.4,5.01,0.00,29.9,28.9,00.0,38.8,31.7,10.5,0002.8,0013.11,0006.28,0005.23
2021-09-27 05:35:00,,0826.4,5.00,0.00,29.8,27.8,00.0,38.8,31.4,10.6,0002.7,0013.71,0006.27,0005.22
2021-09-27 05:36:00,,0826.4,5.00,0.00,29.7,26.2,00.0,38.8,31.0,10.6,0002.6,0014.01,0006.27,0005.23
2021-09-27 05:37:00,,0826.4,5.00,0.00,29.6,26.2,00.0,38.8,30.9,10.7,0002.3,0013.88,0006.27,0005.23
2021-09-27 05:38:00,,0826.4,4.99,0.00,29.5,26.6,00.0,38.7,30.9,10.7,0001.9,0014.17,0006.34,0005.24
2021-09-27 05:39:00,,0826.4,5.00,0.00,29.4,27.0,00.0,38.7,31.0,10.8,0001.5,0014.00,0006.35,0005.26
2021-09-27 05:40:00,,0826.4,5.00,0.00,29.4,27.3,00.0,38.6,31.0,10.8,0001.3,0013.90,0006.29,0005.25
2021-09-27 05:41:00,,0826.4,4.99,0.00,29.5,27.6,00.0,38.6,31.1,10.8,0001.1,0013.58,0006.31,0005.24
2021-09-27 05:42:00,,0826.3,5.01,0.00,29.5,27.9,00.0,38.6,31.2,10.7,0001.0,0013.36,0006.27,0005.23
2021-09-27 05:43:00,,0826.3,5.00,0.00,29.5,28.0,00.0,38.6,31.2,10.7,0000.5,0013.84,0006.21,0005.21
2021-09-27 05:44:00,,0826.3,5.00,0.00,29.5,28.2,00.0,38.6,31.3,10.8,0000.0,0013.87,0006.21,0005.20
2021-09-27 05:45:00,,0826.2,5.00,0.00,29.6,28.3,00.0,38.6,31.3,10.7,0000.3,0014.18,0006.23,0005.21
2021-09-27 05:46:00,,0826.2,5.00,0.00,29.6,28.4,00.0,38.6,31.3,10.6,0000.9,0014.15,0006.27,0005.23
2021-09-27 05:47:00,,0826.2,5.01,0.00,29.6,28.5,00.0,38.6,31.4,10.6,0001.1,0013.55,0006.29,0005.23
2021-09-27 05:48:00,,0826.3,4.99,0.00,29.6,28.5,00.0,38.7,31.4,10.6,0001.3,0013.44,0006.30,0005.25
2021-09-27 05:49:00,,0826.4,5.01,0.00,29.7,28.6,00.0,38.7,31.4,10.6,0002.1,0013.64,0006.30,0005.26
2021-09-27 05:50:00,,0826.2,4.99,0.00,29.7,28.6,00.0,38.7,31.4,10.7,0002.5,0014.31,0006.31,0005.27
2021-09-27 05:51:00,,0826.2,5.00,0.00,29.7,28.7,00.0,38.7,31.5,10.6,0002.2,0014.37,0006.30,0005.29
2021-09-27 05:52:00,,0826.2,5.00,0.00,29.7,28.7,00.0,38.7,31.5,10.6,0002.4,0014.27,0006.33,0005.33
2021-09-27 05:53:00,,0826.2,5.01,0.00,29.8,28.8,00.0,38.7,31.6,10.6,0002.7,0015.03,0006.39,0005.36
2021-09-27 05:54:00,,0826.2,4.99,0.00,29.8,28.8,00.0,38.8,31.6,10.5,0002.6,0014.93,0006.48,0005.38
2021-09-27 05:55:00,,0826.2,5.01,0.00,29.8,28.9,00.0,38.8,31.6,10.5,0002.6,0014.57,0006.53,0005.42
2021-09-27 05:56:00,,0826.3,5.00,0.00,29.9,28.9,00.0,38.8,31.7,10.5,0002.7,0014.17,0006.51,0005.43
2021-09-27 05:57:00,,0826.3,5.00,0.00,29.9,28.9,00.0,38.8,31.7,10.5,0002.7,0014.00,0006.53,0005.43
2021-09-27 05:58:00,,0826.3,4.99,0.00,29.9,28.6,00.0,38.8,31.6,10.5,0002.9,0014.49,0006.51,0005.43
2021-09-27 05:59:00,,0826.3,5.01,0.00,29.8,26.7,00.0,38.8,31.1,10.5,0003.2,0015.32,0006.52,0005.42
